Skip Page Navigation
NASA JPL Caltech
NASA Logo - Jet Propulsion Laboratory + View the NASA Portal
+ Center for Near-Earth Object Studies
JPL Home Earth Solar System Stars & Galaxies Technology
JPL Solar System Dynamics
BODIES ORBITS EPHEMERIDES TOOLS PHYSICAL DATA DISCOVERY FAQ SITE MAP
JPL Small-Body Database Browser
Search: [ help ]  
43925 (1996 DB3)
Classification: Main-belt Asteroid          SPK-ID: 2043925
Ephemeris | Orbit Diagram | Orbital Elements | Mission Design | Physical Parameters | Discovery Circumstances ]

[ show orbit diagram ]
Orbital Elements at Epoch 2459200.5 (2020-Dec-17.0) TDB
Reference: JPL 29 (heliocentric ecliptic J2000)
 Element Value Uncertainty (1-sigma)   Units 
e .07752306056691055 6.1416e-08  
a 2.583838377627406 1.3465e-08 au
q 2.383531318583489 1.6554e-07 au
i 13.85892796261555 4.9984e-06 deg
node 320.5570807160723 1.3985e-05 deg
peri 199.5665354559385 2.7366e-05 deg
M 320.1057623800014 2.2202e-05 deg
tp 2459368.614089555772
(2021-Jun-03.11408956)
9.3476e-05 TDB
period 1517.037944591254
4.15
1.1859e-05
3.247e-08
d
yr
n .237304545534619 1.855e-09 deg/d
Q 2.784145436671324 1.4509e-08 au
  Orbit Determination Parameters
   # obs. used (total)      1448  
   data-arc span      9153 days (25.06 yr)  
   first obs. used      1996-02-27  
   last obs. used      2021-03-20  
   planetary ephem.      DE441  
   SB-pert. ephem.      SB441-N16  
   condition code      0  
   norm. resid. RMS      .45464  
   source      ORB  
   producer      Otto Matic  
   solution date      2021-May-04 05:27:47  

Additional Information
 Earth MOID = 1.39734 au 
 Jupiter MOID = 2.23723 au 
 T_jup = 3.378 
[ show covariance matrix ]

Ephemeris | Orbit Diagram | Orbital Elements | Mission Design | Physical Parameters | Discovery Circumstances ]

Physical Parameter Table
Parameter Symbol Value Units Sigma Reference Notes
absolute magnitude H 14.54   n/a MPCxxxxx  
diameter diameter 3.415 km 0.478 urn:nasa:pds:neowise_diameters_albedos::2.0[mainbelt] (http://adsabs.harvard.edu/abs/2011ApJ...741...68M)  
geometric albedo albedo 0.263   0.054 urn:nasa:pds:neowise_diameters_albedos::2.0[mainbelt] (http://adsabs.harvard.edu/abs/2011ApJ...741...68M)  

43925 (1996 DB3)          Discovered 1996-Feb-27 by Koleny, P., Kornos, L. at Modra
Reference: 20020822/Numbers.arcLast Updated: 2004-04-19

Alternate Designations
 1996 DB3 = 1998 QE45 
Ephemeris | Orbit Diagram | Orbital Elements | Mission Design | Physical Parameters | Discovery Circumstances ]
ABOUT SSD CREDITS/AWARDS PRIVACY/COPYRIGHT GLOSSARY LINKS
FirstGov 2021-Jun-17 07:09 UT
(server date/time)  
NASA Home Page
Site Manager:   Ryan S. Park
Webmaster  Alan B. Chamberlin